TimeMDT,TemperatureF,Dew PointF,Humidity,Sea Level PressureIn,VisibilityMPH,Wind Direction,Wind SpeedMPH,Gust SpeedMPH,PrecipitationIn,Events,Conditions,WindDirDegrees,DateUTC
12:52 AM,23.0,12.0,63,30.30,10.0,Calm,Calm,-,N/A,,Scattered Clouds,0,2013-05-02 06:52:00
1:52 AM,19.0,10.0,68,30.31,10.0,SSE,3.5,-,N/A,,Clear,160,2013-05-02 07:52:00
2:52 AM,19.0,10.9,71,30.34,10.0,ESE,4.6,-,N/A,,Clear,120,2013-05-02 08:52:00
3:52 AM,18.0,10.9,74,30.36,10.0,ESE,6.9,-,N/A,,Clear,110,2013-05-02 09:52:00
4:52 AM,17.1,10.0,74,30.39,10.0,Calm,Calm,-,N/A,,Clear,0,2013-05-02 10:52:00
5:52 AM,17.1,10.0,74,30.42,10.0,Calm,Calm,-,N/A,,Clear,0,2013-05-02 11:52:00
6:52 AM,17.1,10.0,74,30.55,10.0,WSW,4.6,-,N/A,,Clear,240,2013-05-02 12:52:00
7:52 AM,23.0,12.0,63,30.59,10.0,SW,3.5,-,N/A,,Clear,220,2013-05-02 13:52:00
8:52 AM,28.9,12.0,49,30.59,10.0,North,5.8,-,N/A,,Clear,350,2013-05-02 14:52:00
9:52 AM,35.1,10.0,35,30.56,10.0,NNE,8.1,-,N/A,,Clear,30,2013-05-02 15:52:00
10:52 AM,39.0,8.1,28,30.56,10.0,NNE,12.7,17.3,N/A,,Clear,20,2013-05-02 16:52:00
11:52 AM,42.1,1.9,19,30.53,10.0,ENE,12.7,19.6,N/A,,Clear,70,2013-05-02 17:52:00
12:52 PM,44.1,-5.1,13,30.49,10.0,NW,11.5,25.3,N/A,,Clear,310,2013-05-02 18:52:00
1:52 PM,46.9,-2.0,13,30.48,10.0,NNE,12.7,26.5,N/A,,Clear,30,2013-05-02 19:52:00
2:52 PM,46.0,-5.1,12,30.45,10.0,Variable,4.6,-,N/A,,Clear,0,2013-05-02 20:52:00
3:52 PM,50.0,-2.9,11,30.42,10.0,North,8.1,21.9,N/A,,Clear,360,2013-05-02 21:52:00
4:52 PM,51.1,-2.0,11,30.40,10.0,NNE,10.4,18.4,N/A,,Clear,30,2013-05-02 22:52:00
5:52 PM,51.1,-2.9,11,30.39,10.0,Calm,Calm,-,N/A,,Clear,0,2013-05-02 23:52:00
6:52 PM,48.9,-2.9,12,30.40,10.0,East,6.9,-,N/A,,Clear,80,2013-05-03 00:52:00
7:52 PM,43.0,-0.0,17,30.40,10.0,ENE,6.9,-,N/A,,Clear,70,2013-05-03 01:52:00
8:52 PM,33.1,15.1,48,30.43,10.0,East,5.8,-,N/A,,Clear,80,2013-05-03 02:52:00
9:52 PM,28.0,12.9,53,30.44,10.0,Calm,Calm,-,N/A,,Clear,0,2013-05-03 03:52:00
10:52 PM,24.1,12.0,60,30.44,10.0,Calm,Calm,-,N/A,,Clear,0,2013-05-03 04:52:00
11:52 PM,24.1,12.0,60,30.43,10.0,WSW,3.5,-,N/A,,Clear,250,2013-05-03 05:52:00